Location: Arlington
(40.6323°N, 74.1651°W)
Time: 09:51:48
(UTC+00:00)

CSL-04 Rocket - Pass Details

Date: 22 November 2019
Orbit: 806 x 860 km, 99.0° (Epoch: 15 December)

Event Time Altitude Azimuth Distance (km) Brightness Sun altitude
Rises 23:11:06 0° 156° (SSE) 3,343 6.7 -18.2°
Reaches altitude 10° 23:13:28 10° 153° (SSE) 2,407 5.9 -18.7°
Maximum altitude 23:18:43 65° 72° (ENE) 896 3.5 -19.6°
Drops below altitude 10° 23:23:57 10° 352° (N) 2,400 6.0 -20.6°
Sets 23:26:18 0° 350° (N) 3,332 6.8 -21.1°
